Printer-friendly version

IAU Minor Planet Center

Minor Planet Center

MPEC 2005-U26 : 2005 UH

The following Minor Planet Electronic Circular may be linked-to from your own Web pages, but must not otherwise be redistributed electronically.


Read MPEC 2005-U25 Read MPEC 2005-U27


M.P.E.C. 2005-U26                                Issued 2005 Oct. 23, 15:09 UT

     The Minor Planet Electronic Circulars contain information on unusual
         minor planets and routine data on comets.  They are published
   on behalf of Commission 20 of the International Astronomical Union by the
          Minor Planet Center, Smithsonian Astrophysical Observatory,
                          Cambridge, MA 02138, U.S.A.

                  Supported in part by the Brinson Foundation
                  Supported in part by the TABASGO Foundation
             Prepared using the Tamkin Foundation Computer Network

                              MPC@CFA.HARVARD.EDU
          URL http://cfa-www.harvard.edu/iau/mpc.html  ISSN 1523-6714

                                    2005 UH

Observations:
     K05U00H* C2005 10 22.35045 03 44 34.22 +15 22 41.0          20.4 V EU026691
     K05U00H  C2005 10 22.36773 03 44 31.54 +15 23 38.9          20.5 V EU026691
     K05U00H  C2005 10 22.38510 03 44 28.91 +15 24 36.2          20.1 V EU026691
     K05U00H tC2005 10 22.49970 03 44 11.70 +15 30 50.3          20.4 V EU026291
     K05U00H tC2005 10 22.50386 03 44 11.12 +15 31 03.3          20.3 V EU026291
     K05U00H tC2005 10 22.50774 03 44 10.46 +15 31 16.5          19.9 V EU026291
     K05U00H  C2005 10 23.26867 03 42 39.32 +16 12 11.0          20.6 V EU026291
     K05U00H  C2005 10 23.27264 03 42 38.72 +16 12 23.2          20.3 V EU026291
     K05U00H  C2005 10 23.27662 03 42 38.13 +16 12 36.8          20.8 V EU026291
     K05U00H 5C2005 10 23.34144 03 42 28.80 +16 16 01.1          20.0 R EU026673
     K05U00H 5C2005 10 23.34641 03 42 28.13 +16 16 15.8                 EU026673
     K05U00H 5C2005 10 23.35868 03 42 26.22 +16 16 54.7                 EU026673
     K05U00H 5C2005 10 23.36331 03 42 25.57 +16 17 09.6                 EU026673
     K05U00H  C2005 10 23.45470 03 42 11.40 +16 21 56.3          20.5 V EU026291
     K05U00H  C2005 10 23.45873 03 42 10.81 +16 22 08.5          20.4 V EU026291
     K05U00H  C2005 10 23.46263 03 42 10.22 +16 22 20.6          20.7 V EU026291

Observer details:
291 LPL/Spacewatch II.  Observer M. Block.  1.8-m f/2.7 reflector + CCD.
673 Table Mountain Observatory, Wrightwood.  Observer J. Young.  0.6-m f/16
    Cassegrain + CCD.
691 Steward Observatory, Kitt Peak.  Observer M. T. Read.  0.9-m f/3 reflector
    + CCD.

Orbital elements:
2005 UH
Epoch 2005 Oct. 17.0 TT = JDT 2453660.5                 MPC
M  19.03188              (2000.0)            P               Q
n   0.48115167     Peri.  307.56757     +0.95865286     +0.27668946
a   1.6129270      Node    36.50537     -0.21283529     +0.85231337
e   0.3745552      Incl.    6.42208     -0.18890694     +0.44385229
P   2.05           H   23.5           G   0.15
From 16 observations 2005 Oct. 22-23.

Ephemeris:
2005 UH                  a,e,i = 1.61, 0.37, 6                   q = 1.0088
Date    TT    R. A. (2000) Decl.     Delta      r     Elong.  Phase     V
2005 10 17    03 56.13   +09 40.2    0.111    1.088   143.4    33.1    20.3
2005 10 27    03 34.88   +19 09.4    0.144    1.128   157.6    19.6    20.5
2005 11 06    03 16.31   +24 27.5    0.186    1.174   168.7     9.5    20.8
2005 11 16    03 02.78   +27 10.8    0.238    1.224   170.1     8.0    21.4
2005 11 26    02 55.31   +28 26.2    0.300    1.276   162.1    13.8    22.2

Brian G. Marsden             (C) Copyright 2005 MPC           M.P.E.C. 2005-U26

Read MPEC 2005-U25 Read MPEC 2005-U27


Our Web policy. Index to the CBAT/MPC/ICQ pages.


Valid HTML 4.01!